Weather History for KMFR - January, 2013

Change the Weather History Date:

Sunday, January 27, 2013

  Actual Average Record
Temperature  
Mean Temperature 40 °F 42 °F  
Max Temperature 46 °F 50 °F 67 °F (1987)
Min Temperature 34 °F 33 °F 11 °F (1957)
Degree Days  
Heating Degree Days 25 23  
Month to date heating degree days 771 674  
Since 1 July heating degree days 2323 2440  
Cooling Degree Days 0 0  
Month to date cooling degree days 0 0  
Year to date cooling degree days 0 0  
Moisture  
Dew Point 34 °F    
Average Humidity 77    
Maximum Humidity 96    
Minimum Humidity 58    
Precipitation  
Precipitation 0.09 in 0.06 in 1.00 in (1954)
Month to date precipitation 0.89 2.17  
Year to date precipitation 0.89 2.17  
Snow  
Snow 0.00 in 0.10 in - ()
Month to date snowfall 0.5 1.2  
Since 1 July snowfall 1.7 2.9  
Snow Depth 0.00 in    
Sea Level Pressure  
Sea Level Pressure 30.17 in    
Wind  
Wind Speed 2 mph (SSE)    
Max Wind Speed 8 mph    
Max Gust Speed 9 mph    
Visibility 9 miles    
Events Rain    
T = Trace of Precipitation, MM = Missing Value Source: NWS Daily Summary

Daily Weather History Graph

Daily Weather History Graph

Search for Another Location

Airport or City:

Trip Planner

Search our weather history database for the weather conditions in past years. The results will help you decide how hot, cold, wet, or windy it might be!

Date:

Astronomy

Jan. 27, 2013 Rise Set
Actual Time 7:29 AM PST 5:19 PM PST
Civil Twilight 6:59 AM PST 5:49 PM PST
Nautical Twilight 6:25 AM PST 6:23 PM PST
Astronomical Twilight 5:52 AM PST 6:56 PM PST
Moon 6:21 PM PST (1/27) 7:23 AM PST (1/27)
Length of Visible Light 10h 50m
Length of Day
9h 49m
Full, 100% of the Moon is Illuminated
Jan 27
Full
Feb 3
Last Quarter
Feb 9
New
Feb 17
First Quarter
Feb 25
Full

Hourly Weather History & Observations

Time (PST) Temp. Windchill Dew Point Humidity Pressure Visibility Wind Dir Wind Speed Gust Speed Precip Events Conditions
12:53 AM 36.0 °F - 33.1 °F 89% 30.13 in 10.0 mi Calm Calm - N/A   Overcast
1:53 AM 36.0 °F - 33.1 °F 89% 30.14 in 10.0 mi Calm Calm - N/A   Overcast
2:53 AM 36.0 °F - 33.1 °F 89% 30.15 in 10.0 mi Calm Calm - N/A   Mostly Cloudy
3:53 AM 34.0 °F 31.0 °F 32.0 °F 92% 30.15 in 9.0 mi North 3.5 mph - N/A   Overcast
4:53 AM 35.1 °F - 33.1 °F 92% 30.16 in 10.0 mi Calm Calm - N/A   Overcast
5:53 AM 36.0 °F - 33.1 °F 89% 30.16 in 6.0 mi Calm Calm - N/A   Overcast
6:53 AM 35.1 °F - 33.1 °F 92% 30.18 in 6.0 mi Calm Calm - N/A   Overcast
7:53 AM 35.1 °F - 33.1 °F 92% 30.19 in 10.0 mi Calm Calm - 0.00 in   Mostly Cloudy
8:53 AM 37.0 °F - 33.1 °F 86% 30.20 in 10.0 mi Calm Calm - N/A   Scattered Clouds
9:53 AM 39.9 °F - 34.0 °F 79% 30.21 in 10.0 mi Calm Calm - N/A   Scattered Clouds
10:34 AM 41.0 °F 38.0 °F 35.6 °F 81% 30.20 in 10.0 mi North 4.6 mph - N/A   Overcast
10:53 AM 41.0 °F 38.0 °F 35.1 °F 79% 30.23 in 10.0 mi NNE 4.6 mph - N/A   Overcast
11:53 AM 42.1 °F 40.2 °F 33.1 °F 70% 30.22 in 10.0 mi NW 3.5 mph - N/A   Overcast
12:53 PM 44.1 °F - 33.1 °F 65% 30.20 in 10.0 mi Calm Calm - N/A   Mostly Cloudy
1:53 PM 45.0 °F - 32.0 °F 60% 30.17 in 10.0 mi Calm Calm - N/A   Mostly Cloudy
2:53 PM 45.0 °F - 30.0 °F 56% 30.16 in 10.0 mi Calm Calm - N/A   Overcast
3:53 PM 45.0 °F - 32.0 °F 60% 30.17 in 10.0 mi Calm Calm - N/A   Overcast
4:53 PM 43.0 °F - 32.0 °F 65% 30.16 in 10.0 mi Calm Calm - 0.00 in   Overcast
5:53 PM 42.1 °F 39.2 °F 33.1 °F 70% 30.17 in 10.0 mi North 4.6 mph - 0.00 in Rain Light Rain
6:42 PM 41.0 °F 39.0 °F 35.6 °F 81% 30.14 in 8.0 mi NNE 3.5 mph - 0.00 in Rain Light Rain
6:53 PM 41.0 °F 39.0 °F 35.1 °F 79% 30.16 in 9.0 mi Variable 3.5 mph - 0.00 in Rain Light Rain
7:20 PM 41.0 °F - 35.6 °F 81% 30.14 in 10.0 mi Calm Calm - 0.01 in Rain Light Rain
7:51 PM 39.2 °F 35.9 °F 35.6 °F 87% 30.14 in 8.0 mi South 4.6 mph - 0.01 in Rain Light Rain
7:53 PM 39.9 °F 35.8 °F 35.1 °F 83% 30.16 in 8.0 mi SSE 5.8 mph - 0.01 in Rain Light Rain
8:08 PM 39.2 °F 35.0 °F 35.6 °F 87% 30.14 in 9.0 mi SSE 5.8 mph - 0.01 in Rain Light Rain
8:53 PM 37.9 °F 33.5 °F 36.0 °F 93% 30.16 in 8.0 mi South 5.8 mph - 0.01 in Rain Light Rain
9:09 PM 37.4 °F 32.8 °F 35.6 °F 93% 30.13 in 7.0 mi South 5.8 mph - 0.01 in Rain Light Rain
9:53 PM 37.9 °F 33.5 °F 35.1 °F 89% 30.15 in 9.0 mi South 5.8 mph - 0.02 in Rain Light Rain
10:17 PM 37.4 °F 34.9 °F 35.6 °F 93% 30.13 in 10.0 mi South 3.5 mph - 0.01 in Rain Light Rain
10:51 PM 37.4 °F 34.9 °F 35.6 °F 93% 30.14 in 9.0 mi South 3.5 mph - 0.02 in Rain Light Rain
10:53 PM 37.9 °F 35.5 °F 35.1 °F 89% 30.16 in 9.0 mi South 3.5 mph - 0.02 in Rain Light Rain
11:53 PM 37.9 °F - 35.1 °F 89% 30.17 in 10.0 mi Calm Calm - 0.03 in Rain Light Rain